Regional Weather Roundup
Issued by NWS

Home | Current Version | Previous Version | Text Only | Print | Product List | Glossary Off
Versions: 1 2 3 4 5 6 7 8 9 10 11 12 13 14 15 16 17 18 19 20 21 22 23 24 25 26 27 28 29 30 31 32 33 34 35 36 37 38 39 40 41 42 43 44 45 46 47 48 49 50

000
ASUS43 KFSD 222302
RWRSD

WEATHER ROUNDUP FOR SOUTH DAKOTA
NATIONAL WEATHER SERVICE SIOUX FALLS SD
600 PM CDT MON SEP 22 2014

NOTE: "FAIR" INDICATES FEW OR NO CLOUDS BELOW 12,000 FEET WITH NO
SIGNIFICANT WEATHER AND/OR OBSTRUCTIONS TO VISIBILITY.


SDZ001>005-009-010-012>017-230000-
NORTHWEST AND NORTH CENTRAL SOUTH DAKOTA

CITY           SKY/WX    TMP DP  RH WIND       PRES   REMARKS
FAITH            N/A     76  52  43 S22G29    29.91R
MOBRIDGE       MOSUNNY   80  51  36 SE18G26   29.94F
$$

SDZ012>016-024>037-041>051-057-063-072>074-230000-
SOUTHWEST AND SOUTH CENTRAL SOUTH DAKOTA

CITY           SKY/WX    TMP DP  RH WIND       PRES   REMARKS
RAPID CTY ARPT CLOUDY    72  50  45 S15       29.92F
PIERRE         MOSUNNY   76  47  35 S22G31    29.97S
CUSTER         CLOUDY    64  45  49 SW7       30.08R
ELLSWORTH AFB  PTSUNNY   74  50  43 S14G23    29.90F
PHILIP         CLOUDY    73  52  47 S23G31    29.94
PINE RIDGE     CLOUDY    69  54  58 S14G24    30.01S
WINNER         MOCLDY    73  47  39 S18       30.05S
$$

SDZ004>011-016>023-039-040-230000-
NORTHEAST SOUTH DAKOTA

CITY           SKY/WX    TMP DP  RH WIND       PRES   REMARKS
ABERDEEN       MOSUNNY   76  47  35 S16G24    30.04F
WATERTOWN      MOSUNNY   72  46  39 S10       30.10F
SISSETON         N/A     74  45  35 S10       30.07F
$$

SDZ017-020-022-023-036>040-048>070-230000-
SOUTHEAST SOUTH DAKOTA

CITY           SKY/WX    TMP DP  RH WIND       PRES   REMARKS
SIOUX FALLS    PTSUNNY   72  47  40 S12       30.14F
HURON          MOSUNNY   75  47  36 SE12G23   30.06F
CHAMBERLAIN    PTSUNNY   73  52  48 S9        30.05S
MITCHELL       MOSUNNY   74  50  42 SE12      30.09F
YANKTON        MOSUNNY   72  50  46 SE9       30.13F
$$

ABBREVIATIONS USED IN REMARKS
   TC - TEMPERATURE IN CELSIUS
  WCI - WIND CHILL INDEX
   HX - HEAT INDEX
  VSB - VISIBILITY



USA.gov is the U.S. government's official web portal to all federal, state and local government web resources and services.